User: anonymous
Location: Caltech
(34.1382°N, 118.1253°W)
Time: 13:08:29
(UTC-07:00)
Language:

Tiros 1 despin weight - Orbit

View from above orbital plane
View from above orbital plane
View from above satellite
View from above satellite

Ground track
Ground track

The orbit data is extracted from the following two-line orbital elements,

1 00115U 60002D   14240.82302336  .00001029  00000-0  15901-3 0  4416
2 00115 048.1678 015.5304 0037155 275.9650 209.8978 14.80699964898404
Epoch (UTC): 28 August 2014 19:45:09
Eccentricity: 0.0037155
inclination: 48.1678°
perigee height: 601 km
apogee height: 653 km
right ascension of ascending node: 15.5304°
argument of perigee: 275.9650°
revolutions per day: 14.80699964
mean anomaly at epoch: 209.8978°
orbit number at epoch: 89840

The dashed part of the orbit path shows where the satellite is in the earth's shadow,  

DLR